• In Hungary
  • List of Countries
  • For 7 days
  • Water Temperature
  • Satellite Maps
  • Weather Map
  • News
  • Weather Widgets
  • user-avatar
    Login

    Hourly Weather Fudżajra

    Today, 21 January, Sunday

    Time Temperature Precipitation Wind Pressure Humidity
    00:00 +16°C° 0 mm 1 mps 720 mmHg 34%
    01:00 +16°C° 0 mm 1 mps 720 mmHg 34%
    02:00 +16°C° 0 mm 2 mps 720 mmHg 37%
    03:00 +15°C° 0 mm 2 mps 719 mmHg 40%
    04:00 +14°C° 0 mm 3 mps 719 mmHg 41%
    05:00 +14°C° 0 mm 4 mps 719 mmHg 48%
    06:00 +14°C° 0 mm 4 mps 720 mmHg 55%
    07:00 +15°C° 0 mm 5 mps 720 mmHg 61%
    08:00 +15°C° 0 mm 6 mps 720 mmHg 59%
    09:00 +16°C° 0 mm 7 mps 720 mmHg 57%
    10:00 +17°C° 0 mm 8 mps 721 mmHg 52%
    11:00 +18°C° 0 mm 8 mps 721 mmHg 48%
    12:00 +19°C° 0 mm 9 mps 720 mmHg 44%
    13:00 +19°C° 0 mm 10 mps 720 mmHg 40%
    14:00 +19°C° 0 mm 10 mps 720 mmHg 42%
    15:00 +18°C° 0 mm 10 mps 719 mmHg 44%
    16:00 +18°C° 0 mm 11 mps 719 mmHg 46%
    17:00 +17°C° 0 mm 10 mps 719 mmHg 49%
    18:00 +16°C° 0 mm 9 mps 719 mmHg 53%
    19:00 +15°C° 0 mm 8 mps 720 mmHg 56%
    20:00 +15°C° 0 mm 7 mps 720 mmHg 58%
    21:00 +15°C° 0 mm 5 mps 720 mmHg 60%
    22:00 +14°C° 0 mm 4 mps 720 mmHg 62%
    23:00 +14°C° 0 mm 4 mps 720 mmHg 65%

    Tomorrow, 22 January, Monday

    Time Temperature Precipitation Wind Pressure Humidity
    00:00 +13°C° 0 mm 4 mps 720 mmHg 67%
    01:00 +13°C° 0 mm 3 mps 720 mmHg 69%
    02:00 +13°C° 0 mm 3 mps 720 mmHg 70%
    03:00 +12°C° 0 mm 3 mps 720 mmHg 72%
    04:00 +13°C° 0 mm 2 mps 719 mmHg 73%
    05:00 +13°C° 0 mm 2 mps 720 mmHg 73%
    06:00 +12°C° 0 mm 1 mps 720 mmHg 74%
    07:00 +12°C° 0 mm 1 mps 720 mmHg 74%
    08:00 +14°C° 0 mm 1 mps 721 mmHg 63%
    09:00 +16°C° 0 mm 1 mps 722 mmHg 51%
    10:00 +20°C° 0 mm 1 mps 722 mmHg 40%
    11:00 +20°C° 0 mm 2 mps 722 mmHg 35%
    12:00 +21°C° 0 mm 2 mps 722 mmHg 31%
    13:00 +23°C° 0 mm 2 mps 721 mmHg 27%
    14:00 +23°C° 0 mm 2 mps 721 mmHg 27%
    15:00 +23°C° 0 mm 2 mps 721 mmHg 28%
    16:00 +23°C° 0 mm 2 mps 720 mmHg 28%
    17:00 +21°C° 0 mm 2 mps 721 mmHg 32%
    18:00 +20°C° 0 mm 2 mps 721 mmHg 37%
    19:00 +19°C° 0 mm 2 mps 721 mmHg 41%
    20:00 +18°C° 0 mm 2 mps 721 mmHg 44%
    21:00 +18°C° 0 mm 2 mps 721 mmHg 47%
    22:00 +17°C° 0 mm 2 mps 721 mmHg 50%
    23:00 +16°C° 0 mm 2 mps 721 mmHg 51%

    Day after tomorrow, 23 January, Tuesday

    Time Temperature Precipitation Wind Pressure Humidity
    00:00 +16°C° 0 mm 2 mps 721 mmHg 52%
    01:00 +15°C° 0 mm 2 mps 720 mmHg 53%
    02:00 +15°C° 0 mm 1 mps 720 mmHg 52%
    03:00 +14°C° 0 mm 1 mps 720 mmHg 51%
    04:00 +14°C° 0 mm 1 mps 720 mmHg 50%
    05:00 +13°C° 0 mm 1 mps 720 mmHg 49%
    06:00 +12°C° 0 mm 0 mps 720 mmHg 48%
    07:00 +12°C° 0 mm 0 mps 720 mmHg 47%
    08:00 +15°C° 0 mm 1 mps 720 mmHg 40%
    09:00 +19°C° 0 mm 1 mps 721 mmHg 32%
    10:00 +21°C° 0 mm 1 mps 721 mmHg 24%
    11:00 +22°C° 0 mm 1 mps 721 mmHg 21%
    12:00 +23°C° 0 mm 1 mps 721 mmHg 19%
    13:00 +24°C° 0 mm 2 mps 720 mmHg 16%
    14:00 +24°C° 0 mm 2 mps 720 mmHg 18%
    15:00 +24°C° 0 mm 3 mps 719 mmHg 19%
    16:00 +25°C° 0 mm 4 mps 719 mmHg 21%
    17:00 +22°C° 0 mm 3 mps 719 mmHg 27%
    18:00 +21°C° 0 mm 3 mps 719 mmHg 33%
    19:00 +19°C° 0 mm 2 mps 720 mmHg 39%
    20:00 +18°C° 0 mm 2 mps 720 mmHg 43%
    21:00 +19°C° 0 mm 1 mps 720 mmHg 46%
    22:00 +18°C° 0 mm 1 mps 720 mmHg 50%
    23:00 +16°C° 0 mm 1 mps 719 mmHg 51%

    24 January, Wednesday

    Time Temperature Precipitation Wind Pressure Humidity
    00:00 +16°C° 0 mm 1 mps 719 mmHg 53%
    01:00 +15°C° 0 mm 1 mps 719 mmHg 54%
    02:00 +15°C° 0 mm 1 mps 719 mmHg 54%
    03:00 +14°C° 0 mm 1 mps 719 mmHg 54%
    04:00 +14°C° 0 mm 2 mps 718 mmHg 55%
    05:00 +14°C° 0 mm 2 mps 719 mmHg 54%
    06:00 +13°C° 0 mm 2 mps 719 mmHg 54%
    07:00 +13°C° 0 mm 2 mps 719 mmHg 53%
    08:00 +15°C° 0 mm 2 mps 720 mmHg 48%
    09:00 +18°C° 0 mm 2 mps 720 mmHg 42%
    10:00 +20°C° 0 mm 2 mps 721 mmHg 36%
    11:00 +21°C° 0 mm 2 mps 721 mmHg 33%
    12:00 +23°C° 0 mm 2 mps 720 mmHg 29%
    13:00 +24°C° 0 mm 3 mps 720 mmHg 25%
    14:00 +24°C° 0 mm 3 mps 719 mmHg 25%
    15:00 +24°C° 0 mm 3 mps 719 mmHg 26%
    16:00 +23°C° 0 mm 4 mps 719 mmHg 27%
    17:00 +22°C° 0 mm 3 mps 719 mmHg 32%
    18:00 +21°C° 0 mm 2 mps 719 mmHg 36%
    19:00 +20°C° 0 mm 2 mps 719 mmHg 41%
    20:00 +20°C° 0 mm 1 mps 719 mmHg 45%
    21:00 +19°C° 0 mm 1 mps 720 mmHg 49%
    22:00 +18°C° 0 mm 1 mps 720 mmHg 52%
    23:00 +18°C° 0 mm 1 mps 719 mmHg 54%

    25 January, Thursday

    Time Temperature Precipitation Wind Pressure Humidity
    00:00 +16°C° 0 mm 1 mps 719 mmHg 56%
    01:00 +16°C° 0 mm 1 mps 719 mmHg 58%
    02:00 +16°C° 0 mm 1 mps 718 mmHg 59%
    03:00 +15°C° 0 mm 1 mps 718 mmHg 60%
    04:00 +15°C° 0 mm 1 mps 718 mmHg 61%
    05:00 +15°C° 0 mm 1 mps 718 mmHg 64%
    06:00 +14°C° 0 mm 1 mps 719 mmHg 67%
    07:00 +14°C° 0 mm 1 mps 719 mmHg 70%
    08:00 +16°C° 0 mm 1 mps 719 mmHg 61%
    09:00 +19°C° 0 mm 1 mps 720 mmHg 53%
    10:00 +22°C° 0 mm 1 mps 721 mmHg 44%
    11:00 +23°C° 0 mm 2 mps 720 mmHg 38%
    12:00 +24°C° 0 mm 2 mps 720 mmHg 32%
    13:00 +25°C° 0 mm 3 mps 720 mmHg 26%
    14:00 +25°C° 0 mm 3 mps 719 mmHg 26%
    15:00 +25°C° 0 mm 4 mps 719 mmHg 26%
    16:00 +25°C° 0 mm 4 mps 719 mmHg 27%
    17:00 +24°C° 0 mm 3 mps 719 mmHg 32%
    18:00 +22°C° 0 mm 3 mps 719 mmHg 38%
    19:00 +20°C° 0 mm 2 mps 719 mmHg 44%
    20:00 +20°C° 0 mm 2 mps 719 mmHg 48%
    21:00 +20°C° 0 mm 1 mps 719 mmHg 53%
    22:00 +19°C° 0 mm 1 mps 719 mmHg 58%
    23:00 +18°C° 0 mm 1 mps 719 mmHg 61%

    26 January, Friday

    Time Temperature Precipitation Wind Pressure Humidity
    00:00 +16°C° 0 mm 1 mps 719 mmHg 64%
    01:00 +16°C° 0 mm 1 mps 718 mmHg 67%
    02:00 +15°C° 0 mm 1 mps 718 mmHg 68%
    03:00 +15°C° 0 mm 1 mps 718 mmHg 68%
    04:00 +14°C° 0 mm 1 mps 718 mmHg 68%
    05:00 +14°C° 0 mm 1 mps 718 mmHg 66%
    06:00 +14°C° 0 mm 1 mps 719 mmHg 64%
    07:00 +14°C° 0 mm 1 mps 719 mmHg 62%
    08:00 +16°C° 0 mm 1 mps 719 mmHg 52%
    09:00 +20°C° 0 mm 1 mps 720 mmHg 42%
    10:00 +23°C° 0 mm 1 mps 721 mmHg 32%
    11:00 +24°C° 0 mm 1 mps 720 mmHg 28%
    12:00 +25°C° 0 mm 2 mps 720 mmHg 24%
    13:00 +27°C° 0 mm 2 mps 719 mmHg 20%
    14:00 +27°C° 0 mm 2 mps 719 mmHg 20%
    15:00 +27°C° 0 mm 2 mps 719 mmHg 21%
    16:00 +27°C° 0 mm 3 mps 718 mmHg 21%
    17:00 +26°C° 0 mm 2 mps 719 mmHg 26%
    18:00 +24°C° 0 mm 2 mps 719 mmHg 30%
    19:00 +22°C° 0 mm 1 mps 719 mmHg 35%
    20:00 +22°C° 0 mm 1 mps 719 mmHg 37%
    21:00 +21°C° 0 mm 1 mps 719 mmHg 39%
    22:00 +20°C° 0 mm 1 mps 719 mmHg 41%
    23:00 +20°C° 0 mm 1 mps 719 mmHg 41%
    Show more